Weather History for Thomson, GA

Change the Weather History Date:

Friday, February 15, 2013

  Actual Average (KDBN) Record (KDBN)
Temperature  
Mean Temperature 46 °F -  
Max Temperature 63 °F 64 °F 82 °F (1962)
Min Temperature 28 °F 34 °F 17 °F (1943)
Degree Days  
Heating Degree Days 20    
Moisture  
Dew Point 36 °F    
Average Humidity 80    
Maximum Humidity 100    
Minimum Humidity 37    
Precipitation  
Precipitation 0.00 in - - ()
Sea Level Pressure  
Sea Level Pressure 30.08 in    
Wind  
Wind Speed 1 mph (WNW)    
Max Wind Speed 8 mph    
Max Gust Speed -    
Visibility 9 miles    
Events      
Averages and records for this station are not official NWS values.
T = Trace of Precipitation, MM = Missing Value Source: NWS Daily Summary

Daily Weather History Graph

Daily Weather History Graph

Search for Another Location

Airport:

Trip Planner

Search our weather history database for the weather conditions in past years. The results will help you decide how hot, cold, wet, or windy it might be!

Date:

Astronomy

Feb. 15, 2013 Rise Set
Actual Time 7:13 AM EST 6:14 PM EST
Civil Twilight 6:48 AM EST 6:40 PM EST
Nautical Twilight 6:19 AM EST 7:09 PM EST
Astronomical Twilight 5:50 AM EST 7:38 PM EST
Moon 10:08 AM EST (2/15) 11:54 PM EST (2/15)
Length of Visible Light 11h 51m
Length of Day
11h 01m
Waxing Crescent, 30% of the Moon is Illuminated
Feb 15
Waxing Crescent
Feb 17
First Quarter
Feb 25
Full
Mar 4
Last Quarter
Mar 11
New

Hourly Weather History & Observations

Time (EST) Temp. Windchill Dew Point Humidity Pressure Visibility Wind Dir Wind Speed Gust Speed Precip Events Conditions
12:15 AM 35.6 °F - 35.6 °F 100% 30.11 in 2.5 mi Calm Calm - N/A   Clear
12:35 AM 34.2 °F - 34.2 °F 100% 30.11 in 3.0 mi Calm Calm - N/A   Clear
12:55 AM 33.8 °F - 33.8 °F 100% 30.11 in 4.0 mi Calm Calm - N/A   Clear
1:15 AM 32.0 °F - 32.0 °F 100% 30.10 in 5.0 mi Calm Calm - N/A   Clear
1:35 AM 31.5 °F 28.1 °F 31.5 °F 100% 30.10 in 7.0 mi NW 3.5 mph - N/A   Clear
1:55 AM 31.5 °F 28.1 °F 31.5 °F 100% 30.09 in 5.0 mi NW 3.5 mph - N/A   Clear
2:15 AM 30.4 °F - 30.4 °F 100% 30.09 in 7.0 mi Calm Calm - N/A   Clear
2:35 AM 31.1 °F - 31.1 °F 100% 30.09 in 5.0 mi Calm Calm - N/A   Clear
2:55 AM 30.9 °F - 30.9 °F 100% 30.09 in 10.0 mi Calm Calm - N/A   Clear
3:15 AM 31.3 °F - 31.3 °F 100% 30.10 in 10.0 mi Calm Calm - N/A   Clear
3:35 AM 31.5 °F - 31.5 °F 100% 30.10 in 5.0 mi Calm Calm - N/A   Clear
3:55 AM 30.6 °F - 30.6 °F 100% 30.10 in 7.0 mi Calm Calm - N/A   Clear
4:15 AM 30.9 °F - 30.9 °F 100% 30.10 in 10.0 mi Calm Calm - N/A   Clear
4:35 AM 30.9 °F - 30.9 °F 100% 30.09 in 4.0 mi Calm Calm - N/A   Clear
4:55 AM 30.2 °F - 30.2 °F 100% 30.11 in 10.0 mi Calm Calm - N/A   Clear
5:15 AM 30.0 °F - 30.0 °F 100% 30.12 in 4.0 mi Calm Calm - N/A   Clear
5:35 AM 29.5 °F - 29.5 °F 100% 30.12 in 7.0 mi Calm Calm - N/A   Clear
5:55 AM 29.3 °F - 29.3 °F 100% 30.12 in 7.0 mi Calm Calm - N/A   Clear
6:15 AM 29.3 °F - 29.3 °F 100% 30.13 in 7.0 mi Calm Calm - N/A   Clear
6:35 AM 29.3 °F - 29.3 °F 100% 30.14 in 5.0 mi Calm Calm - N/A   Clear
6:55 AM 28.9 °F - 28.9 °F 100% 30.14 in 7.0 mi Calm Calm - N/A   Clear
7:15 AM 28.9 °F - 28.9 °F 100% 30.14 in 10.0 mi Calm Calm - N/A   Clear
7:35 AM 29.5 °F - 29.5 °F 100% 30.14 in 7.0 mi Calm Calm - N/A   Clear
7:55 AM 30.9 °F - 30.9 °F 100% 30.15 in 10.0 mi Calm Calm - N/A   Scattered Clouds
8:15 AM 32.0 °F - 32.0 °F 100% 30.15 in 10.0 mi Calm Calm - N/A   Clear
8:35 AM 33.8 °F - 33.8 °F 100% 30.15 in 5.0 mi Calm Calm - N/A   Clear
8:55 AM 36.5 °F - 36.5 °F 100% 30.16 in 10.0 mi Calm Calm - N/A   Clear
9:15 AM 39.9 °F - 38.8 °F 96% 30.16 in 10.0 mi Calm Calm - N/A   Clear
9:35 AM 41.9 °F - 40.3 °F 94% 30.16 in 10.0 mi Calm Calm - N/A   Clear
9:55 AM 44.4 °F - 41.4 °F 89% 30.16 in 10.0 mi Calm Calm - N/A   Clear
10:15 AM 46.9 °F - 41.7 °F 82% 30.16 in 10.0 mi Calm Calm - N/A   Clear
10:35 AM 49.6 °F - 42.8 °F 77% 30.16 in 10.0 mi Calm Calm - N/A   Clear
10:55 AM 51.1 °F - 41.5 °F 70% 30.16 in 10.0 mi Calm Calm - N/A   Clear
11:15 AM 53.6 °F - 41.5 °F 64% 30.16 in 10.0 mi North 4.6 mph - N/A   Clear
11:35 AM 54.7 °F - 40.5 °F 59% 30.15 in 10.0 mi Calm Calm - N/A   Clear
11:55 AM 56.5 °F - 40.5 °F 55% 30.14 in 10.0 mi Calm Calm - N/A   Clear
12:15 PM 57.2 °F - 39.4 °F 51% 30.13 in 10.0 mi Calm Calm - N/A   Clear
12:35 PM 57.6 °F - 38.8 °F 50% 30.12 in 10.0 mi Calm Calm - N/A   Clear
1:15 PM 59.7 °F - 35.8 °F 41% 30.10 in 10.0 mi Calm Calm - N/A   Clear
1:35 PM 59.9 °F - 36.9 °F 42% 30.09 in 10.0 mi Calm Calm - N/A   Clear
1:55 PM 61.0 °F - 36.1 °F 40% 30.07 in 10.0 mi Calm Calm - N/A   Clear
2:15 PM 61.7 °F - 36.9 °F 40% 30.06 in 10.0 mi West 4.6 mph - N/A   Clear
2:35 PM 61.7 °F - 37.6 °F 41% 30.05 in 10.0 mi West 8.1 mph - N/A   Clear
2:55 PM 61.9 °F - 36.5 °F 39% 30.04 in 10.0 mi NW 3.5 mph - N/A   Clear
3:15 PM 62.6 °F - 36.9 °F 38% 30.03 in 10.0 mi West 3.5 mph - N/A   Clear
3:35 PM 62.6 °F - 35.6 °F 37% 30.03 in 10.0 mi Calm Calm - N/A   Clear
3:55 PM 62.8 °F - 36.7 °F 38% 30.02 in 10.0 mi WNW 6.9 mph - N/A   Clear
4:15 PM 62.8 °F - 35.8 °F 37% 30.01 in 10.0 mi WNW 6.9 mph - N/A   Clear
4:35 PM 63.3 °F - 37.0 °F 38% 30.01 in 10.0 mi West 4.6 mph - N/A   Clear
4:55 PM 62.2 °F - 36.3 °F 38% 30.01 in 10.0 mi West 3.5 mph - N/A   Clear
5:15 PM 61.7 °F - 36.1 °F 39% 30.01 in 10.0 mi West 8.1 mph - N/A   Clear
5:35 PM 60.6 °F - 37.0 °F 42% 30.02 in 10.0 mi WSW 4.6 mph - N/A   Clear
6:15 PM 55.9 °F - 38.5 °F 52% 30.03 in 10.0 mi West 3.5 mph - N/A   Clear
6:35 PM 52.5 °F - 39.2 °F 61% 30.03 in 10.0 mi Calm Calm - N/A   Clear
6:55 PM 49.3 °F - 39.9 °F 70% 30.03 in 10.0 mi Calm Calm - N/A   Clear
7:15 PM 48.0 °F - 39.4 °F 72% 30.03 in 10.0 mi Calm Calm - N/A   Clear
7:35 PM 46.9 °F - 39.6 °F 76% 30.03 in 10.0 mi Calm Calm - N/A   Clear
7:55 PM 45.5 °F - 39.4 °F 79% 30.03 in 10.0 mi Calm Calm - N/A   Clear
8:15 PM 44.6 °F - 39.6 °F 82% 30.02 in 10.0 mi Calm Calm - N/A   Clear
8:35 PM 43.0 °F - 39.6 °F 88% 30.01 in 10.0 mi Calm Calm - N/A   Clear
8:55 PM 42.8 °F - 39.6 °F 88% 30.02 in 10.0 mi Calm Calm - N/A   Clear
9:15 PM 41.4 °F - 39.6 °F 93% 30.02 in 10.0 mi Calm Calm - N/A   Clear
9:35 PM 40.1 °F - 38.7 °F 95% 30.02 in 10.0 mi Calm Calm - N/A   Clear
9:55 PM 39.6 °F - 38.7 °F 97% 30.02 in 10.0 mi Calm Calm - N/A   Clear
10:15 PM 38.3 °F - 37.6 °F 97% 30.03 in 10.0 mi Calm Calm - N/A   Clear
10:35 PM 37.6 °F - 37.6 °F 100% 30.02 in 10.0 mi Calm Calm - N/A   Clear
10:55 PM 37.4 °F 34.9 °F 37.4 °F 100% 30.03 in 10.0 mi WNW 3.5 mph - N/A   Clear
11:15 PM 37.2 °F - 37.2 °F 100% 30.03 in 10.0 mi Calm Calm - N/A   Clear
11:35 PM 36.9 °F - 36.9 °F 100% 30.02 in 10.0 mi Calm Calm - N/A   Clear
11:55 PM 36.5 °F 33.9 °F 36.5 °F 100% 30.01 in 10.0 mi NW 3.5 mph - N/A   Clear